(245072) = 1993 FQ59 = 2004 GR59

Discovered at Kitt Peak on 2004-04-13 by Spacewatch.

Orbit

Orbit type: Main Belt

Note: WebGL enabled browser required.

epoch2023-09-13.0
epoch JD2460200.5
perihelion date2021-01-26.14691
perihelion JD2459240.64691
argument of perihelion (°)46.46915
ascending node (°)185.27590
inclination (°)9.43585
eccentricity0.1379958
perihelion distance (AU)2.6821844
Tisserand w.r.t. Jupiter3.2
ΔV w.r.t. Earth (km/sec)10.6
semimajor axis (AU)3.1115678
mean anomaly (°)172.36128
mean daily motion (°/day)0.17957050
aphelion distance (AU)3.541
period (years)5.49
P-vector [x]-0.62006370
P-vector [y]-0.75878290
P-vector [z]-0.19942298
Q-vector [x]0.78440663
Q-vector [y]-0.60447112
Q-vector [z]-0.13899965
absolute magnitude16.02
phase slope0.15
uncertainty0
referenceMPEC 2024-A74
observations used363
oppositions14
arc length (days)10300
first opposition used1995
last opposition used2024
residual rms (arc-secs)0.70
perturbers coarse indicatorM-v
perturbers precise indicator003Ek
first observation date used1995-10-26.0
last observation date used2024-01-07.0
computer nameMPCLINUX
JD of orbit computation2456700.166772
perihelion JD uncertainty (days)1.2177E-04
argument of perihelion uncertainty (°)3.1457E-05
ascending node uncertainty (°)2.4536E-05
inclination uncertainty (°)6.0967E-06
eccentricity uncertainty 4.9805E-08
perihelion distance uncertainty (AU)1.5076E-07
Minimum Orbit Intersection Distances (in AU)
for orbit epoch: 2460200.5, reference: E2024-A74
Mercury2.22963
Venus1.96225
Earth1.68222
Mars1.10919
Jupiter1.4699
Saturn5.59994
Uranus15.4647
Neptune26.3236

Observations

375 total observations over interval: 1993 03 19.15104 – 2024 01 07.268851
These data are available for download (format description).

Date (UT) J2000 RA J2000 Dec Magn Location Ref
1993 03 19.15104 12 22 15.39 -03 10 46.7 19.2   809 – European Southern Observatory, La Silla MPC 23623
1993 03 20.15382 12 21 35.29 -03 02 37.2   809 – European Southern Observatory, La Silla MPC 23623
1995 10 26.19083 00 39 11.91 +01 48 06.4 21.1 V 691 – Steward Observatory, Kitt Peak-Spacewatch MPS 108700
1995 10 26.21189 00 39 11.19 +01 47 59.4 21.8 V 691 – Steward Observatory, Kitt Peak-Spacewatch MPS 108700
1995 10 26.23305 00 39 10.41 +01 47 52.7 21.7 V 691 – Steward Observatory, Kitt Peak-Spacewatch MPS 108700
2004 03 28.35597 13 17 57.87 -05 32 15.1 19.6   704 – Lincoln Laboratory ETS, New Mexico MPS 108530
2004 03 28.36616 13 17 57.47 -05 32 09.2 19.8   704 – Lincoln Laboratory ETS, New Mexico MPS 108530
2004 03 28.37634 13 17 57.07 -05 32 03.8 19.4   704 – Lincoln Laboratory ETS, New Mexico MPS 108530
2004 04 13.20996 13 07 21.05 -03 23 31.7 19.6 V 691 – Steward Observatory, Kitt Peak-Spacewatch MPS 105248
2004 04 13.23863 13 07 19.84 -03 23 18.0 19.5 V 691 – Steward Observatory, Kitt Peak-Spacewatch MPS 105248
2004 04 13.26661 13 07 18.65 -03 23 04.8 19.4 V 691 – Steward Observatory, Kitt Peak-Spacewatch MPS 105248
2004 04 19.31723 13 03 18.83 -02 36 17.1 19.6   704 – Lincoln Laboratory ETS, New Mexico MPS 105248
2004 04 19.32857 13 03 18.33 -02 36 12.8 19.9   704 – Lincoln Laboratory ETS, New Mexico MPS 105248
2004 04 19.35122 13 03 17.42 -02 36 01.9 20.0   704 – Lincoln Laboratory ETS, New Mexico MPS 105248
2006 09 17.43121 01 31 44.49 +07 16 08.2 21.4 V 691 – Steward Observatory, Kitt Peak-Spacewatch MPS 179338
2006 09 17.44926 01 31 43.85 +07 16 02.0 21.0 V 691 – Steward Observatory, Kitt Peak-Spacewatch MPS 179338
2006 09 17.46656 01 31 43.34 +07 15 56.9 21.4 V 691 – Steward Observatory, Kitt Peak-Spacewatch MPS 179338
2006 09 27.35820 01 26 04.73 +06 19 03.4 21.2 V 691 – Steward Observatory, Kitt Peak-Spacewatch MPS 181047
2006 09 27.37558 01 26 04.09 +06 18 57.2 20.9 V 691 – Steward Observatory, Kitt Peak-Spacewatch MPS 181047
2006 09 27.39304 01 26 03.35 +06 18 50.2 20.9 V 691 – Steward Observatory, Kitt Peak-Spacewatch MPS 181047
2006 10 01.36198 01 23 29.78 +05 54 23.7   691 – Steward Observatory, Kitt Peak-Spacewatch MPS 182678
2006 10 01.37932 01 23 29.10 +05 54 17.4   691 – Steward Observatory, Kitt Peak-Spacewatch MPS 182678
2006 10 01.39665 01 23 28.39 +05 54 10.7   691 – Steward Observatory, Kitt Peak-Spacewatch MPS 182678
2006 10 22.37579 01 09 00.03 +03 43 28.8 21.2 V G96 – Mt. Lemmon Survey MPS 184069
2006 10 22.38465 01 08 59.71 +03 43 24.8 20.4 V G96 – Mt. Lemmon Survey MPS 184069
2006 10 22.39362 01 08 59.28 +03 43 22.4 20.9 V G96 – Mt. Lemmon Survey MPS 184069
2006 10 22.40273 01 08 58.92 +03 43 18.9 21.0 V G96 – Mt. Lemmon Survey MPS 184069
2006 11 23.18941 00 53 43.11 +01 29 06.5 22.1 V G96 – Mt. Lemmon Survey MPS 188677
2006 11 23.19553 00 53 42.97 +01 29 06.0 21.5 V G96 – Mt. Lemmon Survey MPS 188677
2006 11 23.20165 00 53 42.90 +01 29 05.0 21.9 V G96 – Mt. Lemmon Survey MPS 188677
2006 11 23.20779 00 53 42.82 +01 29 04.2 21.6 V G96 – Mt. Lemmon Survey MPS 188677
2009 02 26.24899 10 01 00.55 +03 51 00.2 20.4 V 703 – Catalina Sky Survey MPS 278624
2009 02 26.25705 10 01 00.26 +03 51 04.2 19.7 V 703 – Catalina Sky Survey MPS 278624
2009 02 26.26500 10 00 59.79 +03 51 07.0 19.7 V 703 – Catalina Sky Survey MPS 278624
2009 02 26.27293 10 00 59.43 +03 51 10.4 18.9 V 703 – Catalina Sky Survey MPS 278624
2009 03 17.24010 09 48 57.88 +06 04 03.6 20.6 V 703 – Catalina Sky Survey MPS 281260
2009 03 17.24498 09 48 57.70 +06 04 05.7 20.9 V 703 – Catalina Sky Survey MPS 281260
2009 03 17.24977 09 48 57.56 +06 04 07.1 20.9 V 703 – Catalina Sky Survey MPS 281260
2009 03 17.25464 09 48 57.24 +06 04 09.1 20.9 V 703 – Catalina Sky Survey MPS 281260
2010 03 12.863653 17 25 38.61 -14 56 03.9   C51 – WISE MPS 334851
2010 03 12.995956 17 25 46.55 -14 55 35.5   C51 – WISE MPS 334851
2010 03 13.128260 17 25 54.75 -14 55 12.2   C51 – WISE MPS 334851
2010 03 13.525172 17 26 18.74 -14 53 53.9   C51 – WISE MPS 334851
2010 03 13.591388 17 26 22.75 -14 53 39.9   C51 – WISE MPS 334851
2010 03 13.855995 17 26 38.70 -14 52 46.7   C51 – WISE MPS 334851
2010 03 13.988300 17 26 46.59 -14 52 20.8   C51 – WISE MPS 334851
2010 06 06.38802 17 31 48.76 -08 51 00.1 20.0 R 926 – Tenagra II Observatory, Nogales MPS 358656
2010 06 06.39956 17 31 48.18 -08 50 57.1 19.6 R 926 – Tenagra II Observatory, Nogales MPS 358656
2010 06 06.41108 17 31 47.63 -08 50 56.4 19.9 R 926 – Tenagra II Observatory, Nogales MPS 358656
2010 06 06.521429 17 31 42.469 -08 50 39.89 19.65 r F51 – Pan-STARRS 1, Haleakala MPS 337315
2010 06 06.534214 17 31 41.858 -08 50 38.15 19.77 r F51 – Pan-STARRS 1, Haleakala MPS 337315
2010 06 11.414880 17 27 51.892 -08 40 55.48 19.99 g F51 – Pan-STARRS 1, Haleakala MPS 337315
2010 06 11.427118 17 27 51.293 -08 40 54.42 19.96 g F51 – Pan-STARRS 1, Haleakala MPS 337315
2010 06 16.396034 17 23 55.433 -08 34 12.54 20.05 g F51 – Pan-STARRS 1, Haleakala MPS 337315
2010 06 16.406969 17 23 54.898 -08 34 11.87 20.00 g F51 – Pan-STARRS 1, Haleakala MPS 337315
2011 08 20.48844 23 34 57.159 +02 06 13.40 21.0 r F51 – Pan-STARRS 1, Haleakala MPS 389114
2011 08 20.51122 23 34 56.402 +02 06 06.57 20.7 i F51 – Pan-STARRS 1, Haleakala MPS 389114
2011 08 20.52279 23 34 56.017 +02 06 03.20 20.8 i F51 – Pan-STARRS 1, Haleakala MPS 389114
2011 09 02.42767 23 27 08.489 +00 52 45.63 21.0 w F51 – Pan-STARRS 1, Haleakala MPS 391018
2011 09 02.44195 23 27 07.905 +00 52 40.19 21.0 w F51 – Pan-STARRS 1, Haleakala MPS 391018
2011 09 02.45627 23 27 07.300 +00 52 34.83 21.1 w F51 – Pan-STARRS 1, Haleakala MPS 391018
2011 09 02.47067 23 27 06.713 +00 52 29.39 21.1 w F51 – Pan-STARRS 1, Haleakala MPS 391018
2011 09 04.18618 23 25 58.22 +00 41 33.9 20.5 V 691 – Steward Observatory, Kitt Peak-Spacewatch MPS 391018
2011 09 04.20392 23 25 57.49 +00 41 28.4 20.9 V 691 – Steward Observatory, Kitt Peak-Spacewatch MPS 391018
2011 09 04.22164 23 25 56.76 +00 41 20.7 20.7 V 691 – Steward Observatory, Kitt Peak-Spacewatch MPS 391018
2011 09 04.56355 23 25 42.752 +00 39 09.24 20.9 z F51 – Pan-STARRS 1, Haleakala MPS 391018
2011 09 04.56650 23 25 42.619 +00 39 07.88 20.6 z F51 – Pan-STARRS 1, Haleakala MPS 391018
2011 09 04.56946 23 25 42.495 +00 39 06.91 20.7 z F51 – Pan-STARRS 1, Haleakala MPS 391018
2011 09 04.57241 23 25 42.374 +00 39 05.72 20.8 z F51 – Pan-STARRS 1, Haleakala MPS 391018
2011 09 04.58137 23 25 42.002 +00 39 02.25 20.7 z F51 – Pan-STARRS 1, Haleakala MPS 391018
2011 09 04.58434 23 25 41.876 +00 39 00.99 20.9 z F51 – Pan-STARRS 1, Haleakala MPS 391018
2011 09 05.58190 23 25 01.450 +00 32 33.54 21.0 g F51 – Pan-STARRS 1, Haleakala MPS 391018
2011 09 05.58342 23 25 01.391 +00 32 32.79 21.0 g F51 – Pan-STARRS 1, Haleakala MPS 391018
2011 09 05.58489 23 25 01.323 +00 32 32.21 21.0 g F51 – Pan-STARRS 1, Haleakala MPS 391018
2011 09 05.58638 23 25 01.258 +00 32 31.85 21.1 g F51 – Pan-STARRS 1, Haleakala MPS 391018
2011 09 05.58992 23 25 01.113 +00 32 30.35 20.6 r F51 – Pan-STARRS 1, Haleakala MPS 391018
2011 09 05.59437 23 25 00.926 +00 32 28.55 20.7 r F51 – Pan-STARRS 1, Haleakala MPS 391018
2011 09 05.59586 23 25 00.869 +00 32 27.90 20.6 r F51 – Pan-STARRS 1, Haleakala MPS 391018
2011 09 05.59884 23 25 00.746 +00 32 26.93 20.8 r F51 – Pan-STARRS 1, Haleakala MPS 391018
2011 09 24.27661 23 12 23.11 -01 33 52.3 20.6 V G96 – Mt. Lemmon Survey MPS 394103
2011 09 24.27719 23 12 23.07 -01 33 52.9 20.4 V G96 – Mt. Lemmon Survey MPS 394103
2011 09 24.28125 23 12 22.93 -01 33 54.1 20.6 V G96 – Mt. Lemmon Survey MPS 394103
2011 09 24.28183 23 12 22.93 -01 33 54.6 20.6 V G96 – Mt. Lemmon Survey MPS 394103
2011 09 24.28594 23 12 22.75 -01 33 56.1 20.6 V G96 – Mt. Lemmon Survey MPS 394104
2011 09 24.28649 23 12 22.71 -01 33 56.1 20.6 V G96 – Mt. Lemmon Survey MPS 394104
2011 09 24.29053 23 12 22.57 -01 33 58.0 20.2 V G96 – Mt. Lemmon Survey MPS 394104
2011 09 24.29109 23 12 22.53 -01 33 58.5 20.6 V G96 – Mt. Lemmon Survey MPS 394104
2011 10 18.16165 23 00 49.57 -03 52 35.7 21.0 V G96 – Mt. Lemmon Survey MPS 396120
2011 10 18.16694 23 00 49.42 -03 52 37.2 20.9 V G96 – Mt. Lemmon Survey MPS 396120
2011 10 18.17220 23 00 49.32 -03 52 38.9 21.1 V G96 – Mt. Lemmon Survey MPS 396120
